Weather History for KCDJ - March, 2013

Change the Weather History Date:

Monday, March 4, 2013

  Actual Average (KIRK) Record (KIRK)
Temperature  
Mean Temperature 38 °F 36 °F  
Max Temperature 42 °F 45 °F - ()
Min Temperature 33 °F 26 °F - ()
Degree Days  
Heating Degree Days 28 29  
Month to date heating degree days 120  
Since 1 July heating degree days 4653  
Cooling Degree Days 0 0  
Month to date cooling degree days 0  
Year to date cooling degree days 0  
Moisture  
Dew Point 26 °F    
Average Humidity 66    
Maximum Humidity 92    
Minimum Humidity 55    
Precipitation  
Precipitation 0.02 in 0.08 in - ()
Month to date precipitation 0.32  
Year to date precipitation 3.12  
Sea Level Pressure  
Sea Level Pressure 29.84 in    
Wind  
Wind Speed 8 mph (East)    
Max Wind Speed 13 mph    
Max Gust Speed -    
T = Trace of Precipitation, MM = Missing Value Source: NWS Daily Summary

Daily Weather History Graph

Daily Weather History Graph

Search for Another Location

Airport or City:

Trip Planner

Search our weather history database for the weather conditions in past years. The results will help you decide how hot, cold, wet, or windy it might be!

Date:

Astronomy

Mar. 04, 2013 Rise Set
Actual Time 6:42 AM CST 6:09 PM CST
Civil Twilight 6:15 AM CST 6:36 PM CST
Nautical Twilight 5:44 AM CST 7:08 PM CST
Astronomical Twilight 5:13 AM CST 7:39 PM CST
Moon 12:52 AM CST (3/4) 10:52 AM CST (3/4)
Length of Visible Light 12h 21m
Length of Day
11h 27m
Waning Gibbous, 52% of the Moon is Illuminated
Mar 4
Waning Gibbous
Mar 4
Last Quarter
Mar 11
New
Mar 19
First Quarter
Mar 27
Full

Hourly Weather History & Observations

Time (CST) Temp. Windchill Dew Point Humidity Pressure Visibility Wind Dir Wind Speed Gust Speed Precip Events Conditions
12:52 AM 34.0 °F 26.6 °F 23.0 °F 64% 29.90 in - ESE 9.2 mph - N/A   Unknown
1:52 AM 34.0 °F 26.0 °F 23.0 °F 64% 29.86 in - ESE 10.4 mph - N/A   Unknown
2:52 AM 34.0 °F 25.0 °F 23.0 °F 64% 29.84 in - ESE 12.7 mph - N/A   Unknown
3:52 AM 33.1 °F 26.1 °F 23.0 °F 66% 29.81 in - ESE 8.1 mph - N/A   Unknown
4:52 AM 33.1 °F 25.5 °F 23.0 °F 66% 29.82 in - ESE 9.2 mph - N/A   Unknown
5:52 AM 33.1 °F 26.1 °F 24.1 °F 70% 29.81 in - ESE 8.1 mph - N/A   Unknown
6:52 AM 33.1 °F 25.5 °F 24.1 °F 70% 29.81 in - ESE 9.2 mph - N/A   Unknown
7:52 AM 34.0 °F 27.2 °F 25.0 °F 70% 29.81 in - ESE 8.1 mph - N/A   Unknown
8:52 AM 36.0 °F 28.5 °F 26.1 °F 67% 29.81 in - ESE 10.4 mph - N/A   Unknown
9:52 AM 37.0 °F 29.8 °F 26.1 °F 65% 29.79 in - ESE 10.4 mph - N/A   Unknown
10:52 AM 37.9 °F 32.1 °F 27.0 °F 65% 29.79 in - ESE 8.1 mph - N/A   Unknown
11:52 AM 41.0 °F 36.4 °F 27.0 °F 57% 29.79 in - East 6.9 mph - N/A   Unknown
12:52 PM 41.0 °F 36.4 °F 28.0 °F 60% 29.78 in - ESE 6.9 mph - N/A   Unknown
1:52 PM 42.1 °F 36.1 °F 27.0 °F 55% 29.76 in - East 10.4 mph - N/A   Unknown
2:52 PM 42.1 °F 37.7 °F 27.0 °F 55% 29.78 in - East 6.9 mph - N/A   Unknown
3:52 PM 42.1 °F 37.7 °F 27.0 °F 55% 29.78 in - ENE 6.9 mph - N/A   Unknown
4:52 PM 41.0 °F 37.1 °F 27.0 °F 57% 29.81 in - ENE 5.8 mph - N/A   Unknown
5:52 PM 39.0 °F 35.7 °F 28.0 °F 65% 29.84 in - North 4.6 mph - N/A   Unknown
6:52 PM 39.0 °F 35.7 °F 28.0 °F 65% 29.87 in - North 4.6 mph - N/A   Unknown
7:52 PM 37.9 °F 35.5 °F 28.0 °F 68% 29.91 in - NNW 3.5 mph - N/A   Unknown
8:52 PM 37.0 °F 32.4 °F 28.0 °F 70% 29.92 in - NNW 5.8 mph - N/A   Unknown
9:52 PM 37.0 °F 31.6 °F 28.0 °F 70% 29.95 in - North 6.9 mph - N/A   Unknown
10:52 PM 35.1 °F 29.3 °F 30.0 °F 82% 29.97 in - North 6.9 mph - N/A   Unknown
11:52 PM 33.1 °F 30.0 °F 30.9 °F 92% 29.98 in - NW 3.5 mph - 0.02 in   Unknown